This is the latest recevied weather packets stored in our database for station/object N3WPH. If no packets are shown the sender has not sent any weather packets the latest 1 day(s).
| Time | Temp. | Humidity | Pressure | Rain* | Wind** | Luminosity | Snow |
|---|---|---|---|---|---|---|---|
| 1778073933 | 15.56° C | 90% | 1008 hPa | 1.78 mm | - | 55 W/m² | - |
| 1778073327 | 15.56° C | 89% | 1008 hPa | 3.05 mm | - | 52 W/m² | - |
| 1778072418 | 16.11° C | 87% | 1008.3 hPa | 3.05 mm | - | 41 W/m² | - |
| 1778072116 | 16.11° C | 86% | 1008.2 hPa | 1.27 mm | - | 54 W/m² | - |
| 1778071209 | 16.67° C | 82% | 1008.1 hPa | 0 mm | - | 36 W/m² | - |
| 1778070301 | 17.22° C | 78% | 1007.6 hPa | 0 mm | - | 35 W/m² | - |
| 1778069696 | 17.22° C | 76% | 1007.7 hPa | 0 mm | - | 59 W/m² | - |
| 1778067579 | 17.78° C | 70% | 1007.9 hPa | 0 mm | - | 28 W/m² | - |
| 1778065460 | 17.78° C | 68% | 1007.4 hPa | 0 mm | - | 20 W/m² | - |
| 1778064853 | 17.78° C | 68% | 1007.3 hPa | 0 mm | - | 11 W/m² | - |
| 1778064248 | 17.78° C | 67% | 1007.1 hPa | 0 mm | - | 10 W/m² | - |
| 1778063946 | 18.33° C | 66% | 1007.4 hPa | 0 mm | - | 10 W/m² | - |
| 1778063643 | 18.33° C | 66% | 1006.9 hPa | 0 mm | - | 13 W/m² | - |
| 1778063340 | 18.33° C | 64% | 1007 hPa | 0 mm | - | 12 W/m² | - |
| 1778062735 | 18.33° C | 63% | 1007 hPa | 0 mm | - | 7 W/m² | - |
| 1778062431 | 18.33° C | 62% | 1007.1 hPa | 0 mm | - | 4 W/m² | - |
| 1778062129 | 18.33° C | 62% | 1007.1 hPa | 0 mm | - | 3 W/m² | - |
| 1778061525 | 18.33° C | 61% | 1007 hPa | 0 mm | - | 2 W/m² | - |
| 1778061222 | 18.33° C | 61% | 1007 hPa | 0 mm | - | 1 W/m² | - |
| 1778060618 | 18.33° C | 60% | 1007.1 hPa | 0 mm | - | 0 W/m² | - |
| 1778060012 | 18.33° C | 60% | 1007.3 hPa | 0 mm | - | 0 W/m² | - |
| 1778059710 | 17.78° C | 60% | 1007.1 hPa | 0 mm | - | 0 W/m² | - |
| 1778059104 | 18.33° C | 59% | 1007.3 hPa | 0 mm | - | 0 W/m² | - |
| 1778058802 | 18.33° C | 58% | 1007.1 hPa | 0 mm | - | 0 W/m² | - |
| 1778058197 | 18.33° C | 58% | 1007.3 hPa | 0 mm | - | 0 W/m² | - |
* Rain latest hour (hover to see other rain measurements)
** Current wind speed in m/s (hover to see current wind gust speed)